Tracking 33744 objects as of 12-Apr-2026
HD Live streaming from Space Station
objects crossing your sky now

STARLINK-36968

Track STARLINK-36968 now!
10-day predictions
STARLINK-36968 is classified as:


NORAD ID: 67995
Int'l Code: 2026-039K
Perigee: 487.1 km
Apogee: 488.3 km
Inclination: 43.0 °
Period: 94.2 minutes
Semi major axis: 6858 km
RCS: Unknown
Launch date: February 27, 2026
Source: United States (US)
Launch site: AIR FORCE WESTERN TEST RANGE (AFWTR)
Your satellite tracking list
Your tracking list is empty




NASA's NSSDC Master Catalog

Two Line Element Set (TLE):
1 67995U 26039K   26102.35236757  .00018535  00000-0  66409-3 0  9995
2 67995  42.9996 218.6679 0000883 264.8984  95.1767 15.28424297  6854
Source of the keplerian elements: AFSPC